リニア彗星

C/2004 U1 ( LINEAR )

English version
Home page
Updated on January 21, 2006

---------------------------------------------------------------------

・ プロフィール

発見日 2004年10月19日
発見光度 19.4等
発見者 Lincoln Laboratory Near-Earth Asteroid Research project

・ 写真集

・ 軌道要素

The following orbital elements are taken from MPC 54823:

Epoch 2004 Dec. 21.0 TT = JDT 2453360.5
T 2004 Dec. 8.7523 TT                                   MPC
q   2.659386             (2000.0)            P               Q
z  +0.000290       Peri.   20.1262      -0.1531086      +0.6965380
 +/-0.000003       Node   112.5464      +0.7705425      -0.3599870
e   0.999228       Incl.  130.6234      +0.6187262      +0.6206804
From 516 observations 2004 Oct. 16-2005 Aug. 27, mean residual 0".5.

・ 星図

・ 光度変化

        m1 =  11.2 + 5 logΔ + 10.0 log r  [   ,-13]  (              〜2004年11月24日)
        m1 = -12.5 + 5 logΔ + 60   log r  [-13,120]  (2004年11月24日〜2005年 4月 7日)
        m1 =  12.0 + 5 logΔ +  7.5 log r  [120,   ]  (2005年 4月 7日〜              )

        ※ 灰色の曲線は、m1 = 11.2 + 5 logΔ + 10.0 log r の光度曲線です。

---------------------------------------------------------------------

軌道要素はMPCのEphemerides and Orbital Elementsに掲載されたものです。
星図は StellaNavigator Ver.2.0 for Windows (アストロアーツ 編著 / アスキー出版局刊) で作成したものです。
光度グラフはComet for Windowsで作成したものです。

---------------------------------------------------------------------

Copyright(C) Seiichi Yoshida (comet@aerith.net). All rights reserved.